Theta_e
304 305 305 304 305 305 305 305 305 306 305 306 306 306 307 308 308 309 308 308 307 307 307 305 304 305 304 303 302 301 299 298 295 299 298 293 289 288 289 292 292 292 293
300 299 299 299 300 300 299 300 301 301 302 302 302 302 303 304 305 305 304 304 303 302 303 303 302 303 302 303 301 299 298 299 297 295 298 288 287 288 289 287 288 289 291
297 296 296 296 297 296 296 296 296 297 297 298 298 298 298 299 299 301 301 300 301 301 302 301 301 300 299 299 299 299 298 297 297 295 295 285 285 284 284 285 286 286 288
295 295 294 294 294 294 294 294 294 294 294 294 295 294 294 295 295 294 293 295 296 298 299 299 300 298 297 297 295 296 295 294 294 294 293 292 283 282 284 283 282 284 284
294 293 292 292 292 292 292 292 291 291 291 292 291 292 292 292 291 293 292 292 293 293 294 294 295 293 292 294 295 294 293 293 293 292 291 290 282 280 280 282 283 282 282
292 291 291 291 290 290 290 289 290 290 290 290 290 289 290 289 290 291 291 291 290 290 290 291 292 289 290 291 293 294 294 291 289 290 290 289 289 285 284 283 282 278 277
290 289 288 288 288 288 287 287 287 288 288 288 288 288 288 289 289 290 290 290 290 290 290 289 289 290 288 290 291 292 292 293 294 292 288 289 289 289 285 282 281 281 281
288 287 286 286 286 286 286 286 286 287 286 286 287 287 287 287 288 289 289 290 290 289 289 289 289 289 290 289 289 288 288 289 289 290 291 292 292 291 286 285 283 282 284
286 286 285 285 283 284 284 285 285 285 285 286 285 285 285 286 287 288 288 288 287 287 287 288 288 287 288 289 287 286 286 287 289 291 292 293 294 293 287 284 282 280 279
283 283 284 283 282 282 283 283 284 284 284 284 284 285 284 284 286 287 287 288 286 286 287 287 287 286 288 289 286 286 284 285 286 286 286 288 290 289 288 285 284 280 280
281 281 281 281 281 282 282 282 282 282 282 282 283 285 285 285 286 286 287 286 285 284 284 285 286 288 288 289 289 286 286 287 287 286 285 285 285 285 285 285 285 283 280
277 277 277 278 280 281 280 280 281 281 281 281 282 283 286 286 285 285 286 286 286 283 283 284 285 287 288 289 288 288 288 288 286 285 285 284 284 284 284 284 284 285 284
271 272 274 275 277 279 279 281 282 281 280 280 280 281 282 284 285 285 285 284 285 284 284 284 285 285 287 287 286 286 285 285 285 284 284 284 284 283 280 279 278 276 275
268 270 273 274 275 277 279 279 280 281 281 281 280 279 281 283 284 285 285 284 285 285 285 285 285 284 285 285 284 285 285 285 285 285 284 282 280 280 279 279 277 277 274
267 269 271 273 274 274 276 277 278 280 282 282 282 282 282 282 284 285 285 285 285 285 285 285 283 283 283 283 284 284 284 284 283 283 281 280 279 278 276 278 276 276 273
266 269 270 270 272 273 274 275 278 279 281 284 285 284 284 285 286 285 286 286 286 286 284 282 282 282 281 282 282 282 282 282 282 282 281 279 278 276 274 275 276 276 273
263 265 267 268 269 270 271 272 272 276 280 283 283 283 284 284 284 284 284 284 286 285 282 282 282 282 281 282 282 282 282 282 282 281 281 279 278 276 275 274 275 275 273
261 262 264 267 268 269 270 271 271 272 273 277 281 281 282 282 282 283 282 283 283 284 283 282 282 282 281 281 281 282 282 281 281 281 280 280 278 276 275 275 274 274 273
262 265 265 266 267 268 268 270 271 273 274 276 279 280 278 278 280 277 276 276 276 278 278 279 279 280 280 281 281 281 280 280 280 280 279 278 278 277 277 276 275 274 273
264 263 264 265 267 268 269 270 272 273 275 277 277 277 277 276 274 272 271 270 271 271 272 273 273 274 275 276 278 279 279 279 278 278 278 277 277 277 276 275 274 273 272
264 265 264 266 267 268 268 270 271 272 274 276 273 274 273 271 269 268 268 267 266 267 268 269 269 269 269 271 273 275 275 275 275 275 275 275 275 275 275 275 274 273 272
264 264 265 265 266 267 267 269 269 270 271 270 270 269 270 268 267 266 265 265 265 265 265 266 267 266 266 266 267 271 271 271 271 272 272 271 272 271 272 271 271 270 269
263 263 264 265 265 265 267 267 267 267 268 268 267 267 266 265 265 264 264 263 264 263 264 264 264 264 264 264 265 265 266 265 266 267 269 269 269 269 269 269 268 267 267
262 263 263 264 264 264 265 265 265 265 265 265 265 265 264 264 264 263 263 263 263 263 263 262 262 261 261 262 263 263 264 264 264 265 265 267 267 266 267 266 266 265 265
261 261 262 262 262 262 263 263 264 264 264 264 264 264 264 264 263 263 263 262 262 262 262 261 260 260 260 260 260 260 260 261 261 260 263 264 264 264 263 263 264 264 263
260 260 261 261 261 261 261 261 262 262 262 263 263 263 263 263 263 263 262 262 262 261 261 261 261 260 259 260 260 261 261 263 261 258 260 261 261 260 260 260 259 260 260
Wind_Speed
8 8 9 8 8 7 7 6 5 4 4 4 3 3 5 5 6 7 9 8 8 8 8 9 11 10 8 8 8 9 9 9 14 10 6 4 6 8 7 10 9 9 10
8 9 9 8 8 8 8 7 6 5 4 5 5 5 5 6 7 8 9 9 8 9 10 10 11 8 11 11 8 11 11 11 11 19 11 5 8 7 7 8 8 8 9
7 8 9 9 9 8 7 7 6 6 5 5 5 5 7 7 8 8 8 10 11 11 10 10 12 9 11 9 10 10 9 10 11 12 12 2 4 2 4 4 6 7 6
6 8 10 8 7 7 7 7 7 6 6 6 6 6 6 7 6 7 7 9 10 10 10 11 11 11 12 10 10 11 10 9 10 11 11 8 4 3 5 4 7 7 7
7 7 8 6 6 6 6 6 5 5 5 5 5 6 6 6 5 8 8 9 9 9 9 10 10 10 11 12 8 10 10 10 10 10 11 8 4 4 7 5 9 5 7
6 7 7 7 6 6 6 6 6 6 6 6 6 7 7 3 8 11 10 7 8 9 10 9 9 9 12 17 20 23 19 12 12 10 11 13 13 9 7 9 7 5 5
7 7 8 7 6 7 7 7 7 7 7 7 7 7 9 9 13 14 12 8 9 9 10 11 11 8 10 12 17 21 21 23 23 15 15 16 15 11 9 10 12 9 8
5 5 6 6 6 6 6 6 6 5 7 7 7 7 8 8 13 16 15 10 9 11 11 12 12 13 12 11 12 12 13 13 12 12 16 18 15 11 13 13 13 10 4
6 6 6 6 7 8 7 8 7 7 7 6 6 8 7 8 13 14 12 8 10 11 10 10 12 14 17 19 13 13 14 12 12 21 24 25 23 18 13 6 7 8 5
7 7 6 6 6 7 8 8 6 7 8 8 8 7 8 9 11 15 13 8 11 10 10 10 12 12 20 20 12 12 14 13 10 10 8 12 18 11 20 13 10 10 7
6 7 6 6 7 7 8 7 8 9 9 9 10 7 8 7 8 14 15 8 9 10 10 10 9 17 20 21 20 11 12 13 13 10 8 7 5 6 7 7 8 9 9
9 8 8 7 7 7 8 8 9 9 10 10 11 10 6 5 8 13 17 16 15 11 12 9 10 20 21 21 16 17 21 19 8 7 7 6 5 4 4 5 6 3 3
9 8 8 9 8 8 9 9 8 8 9 9 8 9 8 7 7 14 16 15 14 10 8 14 22 21 17 11 15 18 16 8 7 7 6 6 4 3 7 8 9 11 10
9 10 9 9 11 10 8 8 8 8 9 9 8 9 9 9 6 7 6 6 10 9 11 9 12 15 15 12 8 9 6 6 5 4 2 3 4 5 5 5 5 6 6
9 9 9 8 10 10 9 9 9 9 10 9 8 7 9 10 6 13 14 8 7 9 10 5 7 7 7 7 6 7 6 4 4 2 3 3 4 5 4 4 5 4 5
8 7 7 8 8 8 10 10 12 18 21 21 20 15 9 16 16 17 19 19 18 14 4 6 7 7 8 7 7 6 5 4 3 2 2 3 4 4 5 4 4 3 6
6 8 7 8 8 8 9 10 11 10 18 17 19 17 17 16 15 17 18 18 16 9 5 5 6 6 7 7 6 5 5 4 2 2 2 3 4 5 6 5 4 4 5
7 9 7 7 8 8 8 9 9 10 11 9 11 10 12 12 14 13 14 15 6 4 5 5 5 5 6 6 6 5 4 3 2 1 1 3 4 5 5 5 5 4 6
7 6 6 7 7 8 9 9 9 9 9 9 8 6 3 10 8 7 9 4 5 5 6 5 5 5 5 5 5 4 3 3 2 1 1 1 2 3 3 3 3 4 6
6 8 7 7 7 7 8 9 9 9 9 8 6 4 5 4 3 4 5 5 5 4 5 6 6 6 6 6 6 5 4 3 3 2 2 2 2 2 3 3 3 4 4
5 6 7 7 6 7 7 8 9 8 8 5 2 5 8 3 3 4 4 5 5 5 5 5 5 5 6 6 6 5 5 4 5 4 3 3 2 1 2 2 2 2 2
5 5 5 6 6 7 7 7 7 7 6 4 3 4 8 3 3 3 3 4 5 5 5 6 5 5 6 6 7 6 5 5 5 4 3 3 2 2 2 2 2 2 2
4 5 5 5 5 6 6 5 5 5 5 5 4 4 4 4 3 3 3 4 4 5 5 6 6 5 5 5 6 6 6 5 5 5 4 3 2 2 2 1 1 1 2
4 4 5 4 5 5 5 5 4 5 4 4 4 3 4 4 4 4 4 4 4 4 4 4 4 6 5 5 5 5 5 5 4 4 6 3 2 1 1 1 1 2 2
4 4 4 4 4 4 5 5 5 4 4 3 3 3 3 3 3 3 3 4 4 4 4 4 3 5 5 7 6 6 6 7 5 5 4 4 3 2 1 0 0 1 2
4 4 4 4 4 4 4 5 5 5 5 4 4 3 3 3 3 4 3 4 4 5 5 4 5 6 7 6 6 7 6 6 4 3 3 3 2 1 0 1 1 2 2
Wind_Direction
75 79 82 74 74 76 72 62 39 16 7 348 333 309 291 283 273 261 265 268 256 258 247 241 244 238 236 233 227 230 235 233 259 267 271 199 202 218 223 225 226 223 232
68 72 69 71 66 60 54 45 28 17 10 359 334 313 298 289 282 269 264 260 254 255 257 257 256 249 240 246 235 231 232 231 248 270 265 215 219 220 230 217 222 224 227
67 75 70 59 61 59 52 42 28 18 17 5 340 324 315 306 299 290 282 279 273 270 265 261 264 250 254 247 238 240 237 237 240 255 268 186 210 181 218 232 229 232 228
60 65 65 51 45 45 43 33 23 13 14 3 352 330 316 310 300 296 284 280 275 270 269 264 262 255 251 249 244 246 247 244 244 250 257 254 193 184 213 207 224 216 220
62 63 59 55 46 41 40 32 21 11 6 354 343 340 327 320 322 312 296 289 281 278 270 266 264 263 260 257 260 258 250 249 249 249 254 244 201 192 207 201 226 210 214
59 54 44 37 32 26 21 15 12 6 2 357 354 341 329 302 305 310 304 287 271 264 270 265 257 253 256 258 260 260 257 257 252 251 254 249 243 225 214 206 196 184 225
53 40 34 21 15 12 3 1 359 349 340 338 336 334 326 322 321 320 312 293 287 276 275 279 279 265 255 264 267 267 265 259 255 254 251 249 253 228 207 204 202 204 213
55 35 28 12 7 357 351 350 342 331 330 322 315 314 309 305 311 314 313 300 287 283 279 278 277 280 273 268 272 271 265 262 257 252 252 258 251 248 205 210 207 213 218
36 16 7 1 352 345 340 337 329 319 314 302 295 297 292 297 309 310 314 301 291 290 286 278 280 284 286 282 277 275 274 272 263 261 263 267 267 249 198 179 191 182 197
4 350 343 345 342 331 323 317 308 296 290 296 291 281 276 285 297 308 316 305 297 296 289 282 266 262 269 276 273 273 277 279 277 272 268 268 270 231 192 193 186 194 173
345 340 338 333 324 312 310 306 304 302 298 298 293 290 287 275 290 307 313 305 299 300 297 298 294 292 283 289 286 276 273 287 278 266 259 259 234 210 202 199 199 192 178
345 332 327 320 318 315 314 312 313 309 305 305 305 302 292 280 288 306 306 306 304 298 297 299 299 300 293 291 293 285 288 292 279 256 253 245 225 205 188 161 149 149 159
337 332 326 324 319 318 309 300 298 296 293 292 293 295 297 297 289 288 295 300 299 293 286 292 304 304 304 300 292 297 298 285 277 251 251 245 202 130 108 96 90 89 68
334 329 325 324 323 313 304 293 286 284 285 288 291 293 296 299 291 303 293 283 288 290 287 286 303 298 294 289 289 294 286 277 257 258 239 109 126 141 137 123 122 124 100
333 323 316 308 304 301 290 290 286 279 274 282 279 276 287 294 293 308 305 303 297 291 297 283 304 304 305 308 306 306 297 270 244 189 168 160 153 133 116 120 128 131 116
315 308 309 303 305 304 305 305 289 284 284 277 281 284 281 276 300 307 310 306 305 302 275 294 307 317 313 315 316 311 298 280 270 212 177 165 159 147 136 119 133 126 133
297 303 306 303 307 306 307 305 306 308 300 290 288 289 286 289 296 301 302 306 303 288 271 284 303 322 321 320 321 310 301 298 290 247 200 171 151 139 143 148 144 132 127
300 289 286 295 296 296 296 294 295 295 303 301 297 289 291 300 301 305 316 307 294 259 272 285 307 320 330 330 330 323 320 317 306 291 207 170 156 159 159 161 167 164 148
297 290 295 292 290 293 293 289 286 287 284 287 292 280 330 327 320 355 356 355 332 339 340 328 342 339 336 337 341 341 344 352 352 352 79 125 134 155 167 156 156 151 135
287 286 292 297 298 299 298 297 298 296 293 284 281 306 329 318 356 2 11 1 358 359 353 344 353 359 351 350 349 350 3 16 28 35 48 71 94 122 141 150 163 168 189
298 300 297 290 299 305 303 300 304 303 303 311 5 353 16 11 23 19 8 9 4 356 352 354 356 7 358 353 356 9 12 23 23 20 30 44 48 82 88 114 138 145 146
293 297 303 307 311 313 314 308 312 316 329 339 350 356 11 31 36 40 28 12 1 356 354 351 4 10 7 1 355 2 18 17 18 15 27 35 48 69 79 95 117 130 147
309 313 318 319 319 315 321 328 331 336 339 349 353 355 7 8 12 19 27 13 1 358 359 359 358 358 2 359 5 9 11 14 360 349 3 21 39 56 58 82 115 144 171
318 319 323 325 332 327 330 332 334 342 349 356 358 7 9 3 358 1 0 1 359 356 356 355 353 352 346 352 354 358 0 360 349 350 349 351 17 56 77 100 170 187 184
321 317 318 323 326 327 325 328 329 333 336 343 346 351 352 345 341 342 339 336 335 331 328 328 329 327 334 335 338 343 343 351 356 347 345 348 352 6 41 31 190 192 186
301 301 302 306 311 316 317 317 318 319 321 322 322 322 319 314 309 308 311 308 306 306 304 300 300 305 311 310 313 313 314 315 312 326 338 340 330 333 291 266 220 224 200